Location: Ajisawe
(8.4333°N, 4.3833°E)
Time: 23:52:50
(UTC+00:00)

Vanguard 1 Rocket - Pass Details

Date: 21 April 2021
Orbit: 652 x 4224 km, 34.3° (Epoch: 10 May)

Event Time Altitude Azimuth Distance (km) Brightness Sun altitude
Exits shadow 03:33:41 - 208° (SSW) 7,820 11.7 -28.7°
Reaches altitude 10° 03:41:27 10° 192° (SSW) 7,425 11.7 -26.9°
Maximum altitude 03:50:43 13° 170° (S) 7,096 11.8 -24.7°
Drops below altitude 10° 03:59:25 10° 149° (SSE) 6,990 12.0 -22.7°
Sets 04:10:15 0° 123° (ESE) 7,262 12.6 -20.1°
